Regional Weather Roundup
Issued by NWS

Home | Current Version | Previous Version | Text Only | Print | Product List | Glossary On
Versions: 1 2 3 4 5 6 7 8 9 10 11 12 13 14 15 16 17 18 19 20 21 22 23 24 25 26 27 28 29 30 31 32 33 34 35 36 37 38 39 40 41 42 43 44 45 46 47 48 49 50
000
ASUS44 KOUN 212210
RWROK

WEATHER ROUNDUP FOR OKLAHOMA
NATIONAL WEATHER SERVICE NORMAN OK
400 PM CST SAT JAN 21 2017

NOTE: "FAIR" INDICATES FEW OR NO CLOUDS BELOW 12,000 FEET WITH NO
      SIGNIFICANT WEATHER AND/OR OBSTRUCTIONS TO VISIBILITY.

OKZ001>007-009>012-014-015-017-212300-
NORTHWEST OKLAHOMA AND THE PANHANDLE

CITY           SKY/WX    TMP DP  RH WIND       PRES   REMARKS
GAGE           PTSUNNY   58  39  49 SE7       29.30F
GUYMON         CLOUDY    53  39  59 SW13      29.27S
ENID/WOODRING  PTSUNNY   57  41  54 SE3       29.35F
$$

OKZ016-021>023-033>039-044-045-212300-
SOUTHWEST OKLAHOMA

CITY           SKY/WX    TMP DP  RH WIND       PRES   REMARKS
LAWTON/REGL    CLOUDY    67  40  37 S14G20    29.35F
LAWTON/FT SILL PTSUNNY   66  42  40 S12G22    29.34F
FREDERICK      PTSUNNY   66  44  45 S14       29.31F
CLINTON        PTSUNNY   60  39  45 S20       29.33F
HOBART         CLOUDY    62  42  47 S16       29.33F
ALTUS AFB      PTSUNNY   64  41  43 S14       29.32F
$$

OKZ018>020-024>031-212300-
CENTRAL OKLAHOMA

CITY           SKY/WX    TMP DP  RH WIND       PRES   REMARKS
OKLAHOMA CITY  PTSUNNY   67  37  33 S10       29.35F
OKC/WILEY POST CLOUDY    67  39  35 SE14      29.35F
STILLWATER     CLOUDY    59  38  45 SE9       29.38F
GUTHRIE        CLOUDY    63  39  41 SE9       29.36F
$$

OKZ008-013-054>072-212300-
NORTHEAST OKLAHOMA

CITY           SKY/WX    TMP DP  RH WIND       PRES   REMARKS
TULSA          PTSUNNY   59  45  59 E6        29.43F
TULSA/JONES    LGT RAIN  59  44  57 NE6       29.41F
PONCA CITY     CLOUDY    56  37  49 SE13      29.38F
BARTLESVILLE   CLOUDY    58  37  45 E6        29.45S
MUSKOGEE       LGT RAIN  62  52  69 E12       29.42F
$$

OKZ032-040>043-046>053-073>077-212300-
SOUTH CENTRAL/SOUTHEAST OKLAHOMA

CITY           SKY/WX    TMP DP  RH WIND       PRES   REMARKS
ARDMORE/DWNTWN PTSUNNY   64  41  42 CALM      29.40R
MCALESTER      CLOUDY    67  51  56 SE8       29.37F
$$




USA.gov is the U.S. government's official web portal to all federal, state and local government web resources and services.